Tracking 20721 objects as of 1-Jun-2020
HD Live streaming from Space Station
objects crossing your sky now

FENGYUN 1C DEB

Track FENGYUN 1C DEB now!
10-day predictions


NORAD ID: 31062
Int'l Code: 1999-025BFG
Perigee: 862.8 km
Apogee: 1,118.3 km
Inclination: 99.2 °
Period: 104.8 minutes
Semi major axis: 7361 km
RCS: 0.0043 m2 (small)
Launch date: May 10, 1999
Source: People's Republic of China (PRC)
Launch site: Taiyaun Space Center, China (TSC)

Note: This is SATELLITE DEBRIS
aabbcc
Your satellite tracking list
Your tracking list is empty




NASA's NSSDC Master Catalog

Two Line Element Set (TLE):
1 31062U 99025BFG 20151.20207330 +.00000015 +00000-0 +55481-4 0  9996
2 31062 099.2086 042.2031 0173544 264.1435 257.4340 13.74523316664397
Source of the keplerian elements: AFSPC